This is the latest recevied weather packets stored in our database for station/object N7BTW-13. If no packets are shown the sender has not sent any weather packets the latest 10 day(s).
| Time | Temp. | Humidity | Pressure | Rain* | Wind** | Luminosity | Snow |
|---|---|---|---|---|---|---|---|
| 1777669208 | 23.33° C | 51% | 1016.1 hPa | 0 mm | - | - | - |
| 1777668607 | 23.89° C | 51% | 1016.3 hPa | 0 mm | - | - | - |
| 1777668006 | 23.33° C | 54% | 1016.4 hPa | 0 mm | - | - | - |
| 1777667408 | 23.33° C | 53% | 1016.5 hPa | 0 mm | - | - | - |
| 1777666807 | 22.78° C | 56% | 1016.6 hPa | 0 mm | - | - | - |
| 1777666209 | 22.78° C | 55% | 1016.7 hPa | 0 mm | - | - | - |
| 1777665607 | 22.78° C | 56% | 1016.8 hPa | 0 mm | - | - | - |
| 1777665007 | 21.11° C | 58% | 1016.9 hPa | 0 mm | - | - | - |
| 1777664408 | 21.67° C | 56% | 1017 hPa | 0 mm | - | - | - |
| 1777663809 | 21.67° C | 56% | 1016.9 hPa | 0 mm | - | - | - |
| 1777663207 | 21.11° C | 57% | 1017 hPa | 0 mm | - | - | - |
| 1777662608 | 22.22° C | 59% | 1017.1 hPa | 0 mm | - | - | - |
| 1777662006 | 20.56° C | 58% | 1017.1 hPa | 0 mm | - | - | - |
| 1777661407 | 21.11° C | 60% | 1017.2 hPa | 0 mm | - | - | - |
| 1777660806 | 20.56° C | 62% | 1017.3 hPa | 0 mm | - | - | - |
| 1777660206 | 20° C | 61% | 1017.5 hPa | 0 mm | - | - | - |
| 1777659607 | 19.44° C | 65% | 1017.5 hPa | 0 mm | - | - | - |
| 1777659007 | 18.89° C | 65% | 1017.6 hPa | 0 mm | - | - | - |
| 1777658406 | 19.44° C | 65% | 1017.6 hPa | 0 mm | - | - | - |
| 1777657807 | 18.89° C | 67% | 1017.7 hPa | 0 mm | - | - | - |
| 1777657207 | 18.33° C | 66% | 1017.8 hPa | 0 mm | - | - | - |
| 1777656607 | 17.78° C | 70% | 1017.7 hPa | 0 mm | - | - | - |
| 1777656007 | 17.78° C | 69% | 1017.7 hPa | 0 mm | - | - | - |
| 1777655407 | 17.78° C | 69% | 1017.6 hPa | 0 mm | - | - | - |
| 1777654806 | 17.22° C | 70% | 1017.6 hPa | 0 mm | - | - | - |
* Rain latest hour (hover to see other rain measurements)
** Current wind speed in m/s (hover to see current wind gust speed)